Home > Weather > Christiansted > Past weeks

Flag for US Virgin Islands Weather for the Past 2 Weeks in Christiansted, US Virgin Islands

Now
74 °F

Heavy rain. Fog.


Feels Like: 71 °F
Forecast: 76 / 84 °F
Wind: 10 mph from Southeast

Location: Christiansted / Henry E. Rohlsen Airport - Saint Croix

Current Time: May 2, 2016 at 10:23:09 PM

Latest Report: May 2, 2016 at 9:53 PM


Visibility: 4 mi

Pressure: 30.09 "Hg

Humidity: 94%

Dew Point: 72 °F

Location of ChristianstedLocation

Historic Weather in Christiansted — Graph

°F

Christiansted Temperature Yesterday

Maximum temperature yesterday: 83 °F (at 8:53 AM)
Minimum temperature yesterday: 71 °F (at 1:53 PM)
Average temperature yesterday: 74 °F

High & Low Weather Summary for the Past Weeks

 TemperatureHumidityPressure
High89 °F (Apr 23, 1:53 PM)100% (May 1, 1:53 PM)30.06 "Hg (May 1, 1:53 PM)
Low71 °F (Apr 30, 12:53 PM)50% (Apr 21, 11:53 AM)29.83 "Hg (Apr 26, 2:53 AM)
Average80 °F78%29.95 "Hg
* Reported Apr 17 8:53 PM — May 2 8:53 PM, Christiansted, Weather by CustomWeather, © 2016

Note: Actual official high and low records may vary slightly from our data, if they occured in-between our weather recording intervals... More about our weather records

Advertising

Christiansted Weather History for the Previous 24 Hours

Scroll right to see more
 ConditionsComfort  
Time TempWeatherWind HumidityBarometerVisibility
8:53 PM
Mon, May 2
76 °FPassing clouds.8 mph85%30.05 "Hg10 mi
7:53 PM76 °FOvercast.12 mph85%30.03 "Hg10 mi
6:53 PM76 °FOvercast.5 mph85%30.02 "Hg10 mi
5:53 PM77 °FOvercast.6 mph82%30.00 "Hg10 mi
4:53 PM77 °FCloudy.15 mph79%30.01 "Hg10 mi
4:01 PM75 °FLight rain. Cloudy.14 mph90%30.01 "Hg7 mi
3:53 PM76 °FRain. Fog.14 mph88%30.01 "Hg6 mi
3:39 PM76 °FCloudy.18 mph85%30.02 "Hg9 mi
2:53 PM83 °FMore clouds than sun.10 mph72%30.00 "Hg10 mi
2:12 PM82 °FPartly sunny.15 mph72%30.02 "Hg10 mi
1:53 PM82 °FSunny.12 mph72%30.02 "Hg10 mi
1:17 PM84 °FPassing clouds.14 mph67%30.03 "Hg10 mi
12:53 PM84 °FScattered clouds.15 mph67%30.03 "Hg10 mi
11:53 AM84 °FMostly cloudy.15 mph65%30.04 "Hg10 mi
10:53 AM81 °FMostly cloudy.13 mph67%30.04 "Hg10 mi
9:53 AM78 °FMostly cloudy.10 mph82%30.05 "Hg10 mi
8:53 AM77 °FPartly sunny.12 mph82%30.04 "Hg10 mi
7:53 AM77 °FPartly sunny.6 mph88%30.03 "Hg10 mi
6:53 AM75 °FScattered clouds.6 mph94%30.00 "Hg10 mi
6:19 AM74 °FCloudy.7 mph94%30.00 "Hg10 mi
5:45 AM74 °FPassing clouds.7 mph88%29.99 "Hg10 mi
5:08 AM73 °FPassing clouds.5 mph94%29.98 "Hg10 mi
4:53 AM73 °FPassing clouds.5 mph94%29.97 "Hg10 mi
3:53 AM73 °FPassing clouds.5 mph97%29.96 "Hg10 mi
2:53 AM73 °FPassing clouds.5 mph97%29.96 "Hg10 mi
1:53 AM72 °FClear.3 mph97%29.97 "Hg10 mi
12:53 AM72 °FClear.7 mph97%29.99 "Hg10 mi
11:53 PM
Sun, May 1
72 °FPassing clouds.5 mph97%30.01 "Hg10 mi
10:53 PM72 °FClear.6 mph97%30.02 "Hg10 mi
Weather by CustomWeather, © 2016

See weather overviewHow to use our weather pages